• In Uzbekistan
  • List of Countries
  • For 7 days
  • Water Temperature
  • Satellite Maps
  • Weather Map
  • Weather Widgets
  • user-avatar
    Login

    Hourly Weather Samos

    Today, 19 September, Tuesday

    Time Temperature Precipitation Wind Pressure Humidity
    00:00 +23°C° 0 mm 1 mps 718 mmHg 49%
    01:00 +22°C° 0 mm 1 mps 717 mmHg 50%
    02:00 +22°C° 0 mm 1 mps 717 mmHg 43%
    03:00 +22°C° 0 mm 1 mps 717 mmHg 41%
    04:00 +22°C° 0 mm 1 mps 717 mmHg 40%
    05:00 +22°C° 0 mm 1 mps 717 mmHg 38%
    06:00 +24°C° 0 mm 1 mps 717 mmHg 34%
    07:00 +24°C° 0 mm 0 mps 717 mmHg 30%
    08:00 +26°C° 0 mm 0 mps 717 mmHg 26%
    09:00 +31°C° 0 mm 1 mps 718 mmHg 23%
    10:00 +33°C° 0 mm 1 mps 718 mmHg 20%
    11:00 +36°C° 0 mm 1 mps 718 mmHg 17%
    12:00 +37°C° 0 mm 2 mps 718 mmHg 16%
    13:00 +38°C° 0 mm 2 mps 718 mmHg 16%
    14:00 +38°C° 0 mm 3 mps 718 mmHg 15%
    15:00 +37°C° 0 mm 3 mps 718 mmHg 17%
    16:00 +35°C° 0 mm 2 mps 718 mmHg 20%
    17:00 +34°C° 0 mm 2 mps 717 mmHg 22%
    18:00 +30°C° 0 mm 2 mps 718 mmHg 28%
    19:00 +27°C° 0 mm 1 mps 718 mmHg 35%
    20:00 +24°C° 0 mm 1 mps 718 mmHg 42%
    21:00 +24°C° 0 mm 1 mps 718 mmHg 42%
    22:00 +23°C° 0 mm 1 mps 718 mmHg 42%
    23:00 +23°C° 0 mm 1 mps 718 mmHg 42%

    Tomorrow, 20 September, Wednesday

    Time Temperature Precipitation Wind Pressure Humidity
    00:00 +23°C° 0 mm 2 mps 718 mmHg 42%
    01:00 +23°C° 0 mm 2 mps 718 mmHg 41%
    02:00 +21°C° 0 mm 3 mps 718 mmHg 41%
    03:00 +21°C° 0 mm 3 mps 718 mmHg 40%
    04:00 +21°C° 0 mm 3 mps 718 mmHg 39%
    05:00 +21°C° 0 mm 3 mps 717 mmHg 37%
    06:00 +24°C° 0 mm 3 mps 718 mmHg 34%
    07:00 +26°C° 0 mm 3 mps 718 mmHg 30%
    08:00 +28°C° 0 mm 4 mps 718 mmHg 26%
    09:00 +30°C° 0 mm 4 mps 718 mmHg 24%
    10:00 +33°C° 0 mm 4 mps 718 mmHg 23%
    11:00 +35°C° 0 mm 4 mps 719 mmHg 21%
    12:00 +35°C° 0 mm 5 mps 719 mmHg 21%
    13:00 +35°C° 0 mm 5 mps 718 mmHg 20%
    14:00 +36°C° 0 mm 5 mps 718 mmHg 20%
    15:00 +34°C° 0 mm 5 mps 718 mmHg 24%
    16:00 +33°C° 0 mm 5 mps 718 mmHg 27%
    17:00 +30°C° 0 mm 5 mps 718 mmHg 30%
    18:00 +28°C° 0 mm 5 mps 718 mmHg 40%
    19:00 +25°C° 0 mm 5 mps 718 mmHg 49%
    20:00 +22°C° 0 mm 4 mps 718 mmHg 59%
    21:00 +21°C° 0 mm 4 mps 718 mmHg 61%
    22:00 +21°C° 0 mm 5 mps 718 mmHg 63%
    23:00 +20°C° 0 mm 5 mps 718 mmHg 65%

    Day after tomorrow, 21 September, Thursday

    Time Temperature Precipitation Wind Pressure Humidity
    00:00 +20°C° 0 mm 5 mps 718 mmHg 68%
    01:00 +20°C° 0 mm 4 mps 718 mmHg 71%
    02:00 +20°C° 0 mm 4 mps 718 mmHg 73%
    03:00 +19°C° 0 mm 4 mps 718 mmHg 79%
    04:00 +19°C° 0 mm 4 mps 718 mmHg 84%
    05:00 +18°C° 0 mm 3 mps 718 mmHg 89%
    06:00 +20°C° 0 mm 3 mps 719 mmHg 82%
    07:00 +21°C° 0 mm 3 mps 719 mmHg 75%
    08:00 +22°C° 0 mm 3 mps 719 mmHg 68%
    09:00 +25°C° 0 mm 3 mps 719 mmHg 60%
    10:00 +26°C° 0 mm 3 mps 719 mmHg 51%
    11:00 +28°C° 0 mm 3 mps 719 mmHg 43%
    12:00 +28°C° 0 mm 4 mps 719 mmHg 40%
    13:00 +28°C° 0 mm 4 mps 719 mmHg 38%
    14:00 +28°C° 0 mm 5 mps 719 mmHg 36%
    15:00 +27°C° 0 mm 5 mps 719 mmHg 38%
    16:00 +26°C° 0 mm 4 mps 719 mmHg 41%
    17:00 +25°C° 0 mm 4 mps 719 mmHg 43%
    18:00 +21°C° 0 mm 4 mps 719 mmHg 52%
    19:00 +19°C° 0 mm 3 mps 719 mmHg 61%
    20:00 +17°C° 0 mm 2 mps 720 mmHg 70%
    21:00 +17°C° 0 mm 2 mps 720 mmHg 73%
    22:00 +16°C° 0 mm 2 mps 720 mmHg 76%
    23:00 +16°C° 0 mm 2 mps 720 mmHg 78%

    22 September, Friday

    Time Temperature Precipitation Wind Pressure Humidity
    00:00 +16°C° 0 mm 2 mps 720 mmHg 80%
    01:00 +15°C° 0 mm 2 mps 720 mmHg 81%
    02:00 +15°C° 0 mm 2 mps 720 mmHg 82%
    03:00 +15°C° 0 mm 2 mps 720 mmHg 82%
    04:00 +15°C° 0 mm 2 mps 720 mmHg 82%
    05:00 +15°C° 0 mm 2 mps 720 mmHg 81%
    06:00 +16°C° 0 mm 2 mps 720 mmHg 73%
    07:00 +18°C° 0 mm 2 mps 720 mmHg 64%
    08:00 +19°C° 0 mm 2 mps 720 mmHg 56%
    09:00 +21°C° 0 mm 2 mps 721 mmHg 48%
    10:00 +24°C° 0 mm 2 mps 721 mmHg 40%
    11:00 +26°C° 0 mm 2 mps 721 mmHg 32%
    12:00 +27°C° 0 mm 3 mps 721 mmHg 32%
    13:00 +27°C° 0 mm 4 mps 721 mmHg 32%
    14:00 +27°C° 0 mm 5 mps 721 mmHg 31%
    15:00 +26°C° 0 mm 6 mps 721 mmHg 35%
    16:00 +24°C° 0 mm 6 mps 721 mmHg 39%
    17:00 +23°C° 0 mm 6 mps 721 mmHg 43%
    18:00 +21°C° 0 mm 6 mps 721 mmHg 49%
    19:00 +19°C° 0 mm 5 mps 722 mmHg 56%
    20:00 +17°C° 0 mm 5 mps 722 mmHg 63%
    21:00 +16°C° 0 mm 5 mps 722 mmHg 64%
    22:00 +15°C° 0 mm 4 mps 722 mmHg 66%
    23:00 +14°C° 0 mm 4 mps 722 mmHg 68%

    23 September, Saturday

    Time Temperature Precipitation Wind Pressure Humidity
    00:00 +14°C° 0 mm 4 mps 722 mmHg 70%
    01:00 +14°C° 0 mm 4 mps 722 mmHg 72%
    02:00 +13°C° 0 mm 4 mps 722 mmHg 73%
    03:00 +13°C° 0 mm 4 mps 721 mmHg 74%
    04:00 +12°C° 0 mm 4 mps 721 mmHg 75%
    05:00 +12°C° 0 mm 4 mps 721 mmHg 76%
    06:00 +14°C° 0 mm 4 mps 722 mmHg 69%
    07:00 +15°C° 0 mm 4 mps 722 mmHg 62%
    08:00 +18°C° 0 mm 4 mps 722 mmHg 54%
    09:00 +20°C° 0 mm 4 mps 722 mmHg 46%
    10:00 +23°C° 0 mm 4 mps 722 mmHg 38%
    11:00 +26°C° 0 mm 4 mps 722 mmHg 30%
    12:00 +27°C° 0 mm 4 mps 722 mmHg 28%
    13:00 +28°C° 0 mm 5 mps 722 mmHg 25%
    14:00 +29°C° 0 mm 5 mps 722 mmHg 22%
    15:00 +28°C° 0 mm 6 mps 722 mmHg 24%
    16:00 +27°C° 0 mm 6 mps 722 mmHg 26%
    17:00 +27°C° 0 mm 6 mps 722 mmHg 28%
    18:00 +23°C° 0 mm 6 mps 722 mmHg 35%
    19:00 +21°C° 0 mm 6 mps 722 mmHg 42%
    20:00 +17°C° 0 mm 6 mps 722 mmHg 49%
    21:00 +17°C° 0 mm 6 mps 722 mmHg 51%
    22:00 +16°C° 0 mm 5 mps 722 mmHg 54%
    23:00 +16°C° 0 mm 5 mps 722 mmHg 56%

    24 September, Sunday

    Time Temperature Precipitation Wind Pressure Humidity
    00:00 +15°C° 0 mm 5 mps 722 mmHg 56%
    01:00 +15°C° 0 mm 5 mps 721 mmHg 57%
    02:00 +14°C° 0 mm 5 mps 721 mmHg 58%
    03:00 +14°C° 0 mm 5 mps 721 mmHg 59%
    04:00 +14°C° 0 mm 5 mps 721 mmHg 61%
    05:00 +13°C° 0 mm 5 mps 721 mmHg 62%
    06:00 +15°C° 0 mm 5 mps 721 mmHg 58%
    07:00 +17°C° 0 mm 5 mps 721 mmHg 54%
    08:00 +19°C° 0 mm 4 mps 721 mmHg 50%
    09:00 +22°C° 0 mm 4 mps 721 mmHg 43%
    10:00 +25°C° 0 mm 4 mps 722 mmHg 36%
    11:00 +28°C° 0 mm 4 mps 722 mmHg 30%
    12:00 +28°C° 0 mm 5 mps 722 mmHg 28%
    13:00 +29°C° 0 mm 5 mps 721 mmHg 26%
    14:00 +30°C° 0 mm 5 mps 721 mmHg 24%
    15:00 +29°C° 0 mm 6 mps 721 mmHg 27%
    16:00 +28°C° 0 mm 6 mps 721 mmHg 30%
    17:00 +28°C° 0 mm 6 mps 721 mmHg 33%
    18:00 +24°C° 0 mm 6 mps 721 mmHg 40%
    19:00 +22°C° 0 mm 5 mps 721 mmHg 48%
    20:00 +19°C° 0 mm 5 mps 721 mmHg 56%
    21:00 +19°C° 0 mm 5 mps 721 mmHg 57%
    22:00 +18°C° 0 mm 4 mps 720 mmHg 59%
    23:00 +18°C° 0 mm 4 mps 720 mmHg 60%
    Show more